RH
81 82 82 81 77 73 72 72 68 65 67 68 68 67 69 69 69 70 69 69 69 67 67 67 66 67 68 70 71 70 72 72 71 76 78 77 75 74 75 78 79 78 76 74 70 66 69 72 71 69 67 64 61 57 55 56 57 55 54 53 53 54 55 56 62 64 62 63 65 62 59 58 55 54 54 53 51 49 45 44 45 44 44 46 45
80 81 81 80 76 72 71 73 69 63 63 65 66 67 69 68 68 69 69 70 69 68 68 67 67 69 68 68 70 70 72 73 73 75 78 79 78 75 75 77 79 79 77 75 70 67 69 72 72 73 73 69 64 60 59 60 60 57 56 57 57 57 58 60 63 67 67 63 59 55 55 56 55 54 53 52 51 49 46 44 44 43 44 45 45
79 80 80 79 76 73 72 72 70 66 65 64 65 68 70 68 69 70 70 70 69 67 67 67 67 69 69 69 70 70 71 73 74 75 76 77 78 77 77 78 78 76 74 70 68 66 68 70 71 73 74 71 67 64 63 64 64 62 60 61 62 60 61 63 64 68 69 64 57 55 56 58 56 53 50 49 50 49 49 49 49 49 50 49 48
78 78 80 79 76 73 72 71 70 70 70 68 67 69 70 68 69 71 70 69 68 66 66 66 67 68 69 70 70 70 71 71 72 73 74 75 76 77 78 79 77 76 74 73 69 66 66 69 71 71 71 70 69 66 63 64 65 63 62 63 64 62 62 64 65 67 69 66 61 59 61 60 57 53 53 53 52 53 54 55 55 54 52 51 51
77 76 76 77 76 75 74 73 72 71 70 69 67 66 67 66 65 67 70 69 66 65 65 66 68 68 68 68 69 70 70 70 69 69 71 72 73 74 75 77 76 75 76 74 70 68 69 71 71 71 70 68 69 67 63 64 65 63 63 63 62 62 63 64 66 67 68 68 66 63 61 60 56 55 58 57 55 55 55 55 55 54 51 49 51
73 73 75 75 75 76 77 76 75 73 70 67 66 64 64 64 63 64 65 64 63 62 63 65 66 66 66 66 67 69 69 68 67 67 67 69 70 72 73 74 71 71 73 73 71 70 72 72 72 70 70 69 69 67 65 64 63 63 63 62 61 63 64 64 66 67 67 68 68 65 61 59 58 59 63 63 59 58 56 52 52 52 52 52 53
67 70 74 73 72 74 74 72 73 74 70 65 64 64 62 62 62 61 62 61 61 61 61 63 64 65 65 65 65 66 67 67 67 67 68 69 71 72 71 72 70 69 73 74 72 71 71 73 73 71 70 70 69 67 66 65 64 62 63 63 63 65 66 66 66 67 68 68 68 67 64 63 62 63 66 65 61 60 62 60 57 56 57 58 58
63 66 70 70 69 69 69 69 69 71 70 66 64 63 61 61 60 58 59 59 60 61 60 62 62 62 63 63 63 64 65 66 68 69 70 71 72 72 71 71 70 69 71 73 72 73 73 72 72 69 67 68 66 64 65 67 66 64 63 65 67 67 67 67 67 67 68 67 68 68 65 62 64 65 66 66 63 64 68 68 66 64 63 64 64
59 61 64 67 66 63 64 67 67 67 68 65 62 60 58 58 58 58 57 56 58 60 61 62 62 60 60 61 62 63 65 67 68 70 72 72 72 73 73 72 72 71 73 75 74 73 71 70 68 65 63 64 63 62 63 66 65 62 63 66 68 69 68 67 68 67 64 62 64 66 62 59 60 63 66 71 74 74 72 70 68 67 68 67 64
70 67 67 65 63 62 64 65 65 69 70 64 60 58 56 55 55 56 55 54 56 59 61 62 61 58 59 61 62 64 66 68 70 70 72 72 73 74 73 74 77 76 76 78 75 68 65 66 65 62 61 63 62 62 67 69 64 60 62 66 67 67 65 63 63 61 56 55 59 61 59 57 56 60 68 74 78 79 75 73 72 71 71 71 68
86 85 83 78 73 70 69 66 69 74 74 66 61 60 58 55 54 55 55 56 58 59 60 60 59 58 59 61 63 66 69 70 70 71 71 71 72 73 74 77 78 75 74 75 72 67 64 64 64 63 62 62 60 62 68 71 68 65 65 67 65 61 56 53 53 53 52 54 56 58 61 62 60 63 68 72 77 80 77 75 75 75 76 82 83
83 84 89 92 89 84 77 73 75 77 75 72 69 68 65 61 58 57 58 58 58 57 57 56 56 57 58 60 62 66 71 72 71 71 71 71 73 75 76 78 79 75 72 68 66 68 67 64 65 65 62 61 60 61 62 64 66 68 68 67 63 59 57 57 57 58 59 60 62 63 66 67 68 71 73 76 80 81 78 75 76 78 79 85 91
79 79 83 87 92 95 91 86 84 83 80 77 76 77 75 70 65 62 61 61 59 58 57 55 54 54 54 56 58 62 70 75 73 71 69 69 72 73 72 73 75 76 72 66 64 67 67 64 64 63 59 59 60 61 60 61 65 70 70 65 61 63 69 71 69 69 70 72 73 71 70 73 75 76 77 81 83 79 77 77 77 79 82 86 89
84 89 88 82 82 87 89 89 88 86 85 81 79 80 79 78 75 71 68 66 64 62 61 59 58 57 56 55 55 61 70 73 71 69 69 68 68 68 66 65 67 71 71 66 63 63 64 64 64 63 61 59 59 60 60 62 68 73 70 62 61 70 76 75 74 74 73 75 76 74 73 76 77 75 74 79 82 80 80 79 77 80 86 86 80
87 94 96 88 81 77 79 82 81 81 83 80 78 78 78 79 80 80 78 75 71 68 67 65 65 63 60 59 58 60 63 63 63 67 69 67 64 63 62 59 59 65 68 65 62 63 66 67 65 63 63 63 63 62 63 65 70 73 72 69 71 76 77 77 78 77 73 74 75 74 74 75 76 75 75 78 79 78 76 74 76 84 87 79 70
93 95 96 94 91 88 88 89 88 89 89 87 88 88 85 83 81 81 85 85 81 78 75 74 73 69 66 64 61 60 59 58 61 66 68 66 62 60 61 60 60 65 67 63 61 64 67 66 64 62 63 65 65 65 67 73 75 76 77 77 78 79 78 77 78 76 76 77 76 76 77 77 74 71 69 69 68 66 64 64 75 88 84 75 74
96 95 93 93 93 93 95 97 97 95 90 88 92 90 84 85 84 82 86 90 90 88 85 82 79 75 73 70 66 65 65 64 65 68 70 70 67 64 65 66 67 69 67 64 63 63 63 62 60 59 63 67 68 69 72 76 78 80 81 81 81 80 79 78 78 79 79 78 78 79 76 67 60 55 53 53 52 52 54 62 78 87 80 79 87
94 92 89 89 90 92 97 101 99 94 91 93 96 92 88 91 93 91 92 94 94 93 92 91 86 82 81 80 76 74 72 70 69 70 73 75 74 71 70 70 72 72 69 68 66 64 65 67 66 66 69 71 73 77 79 80 81 82 82 82 81 79 79 79 79 78 78 78 75 69 59 54 56 57 58 58 57 60 66 76 86 87 83 90 96
92 88 85 87 89 88 93 98 98 94 95 99 100 98 98 99 99 99 99 99 98 97 98 98 93 88 88 89 87 85 81 78 76 75 76 79 79 77 75 73 71 71 71 70 68 68 75 79 78 77 78 78 79 81 83 84 83 82 81 80 77 76 77 76 75 75 75 71 61 51 50 60 69 71 71 73 74 78 84 88 88 83 82 88 90
89 88 87 89 89 86 86 94 98 97 98 100 99 98 98 98 99 100 100 100 100 99 100 100 96 93 94 95 94 93 90 87 85 82 81 82 80 81 84 80 72 69 72 72 73 79 87 87 85 85 86 85 84 83 82 81 79 77 76 74 73 74 74 71 70 66 56 47 46 51 62 73 76 74 72 72 73 77 81 81 78 75 75 75 72
81 84 84 85 86 87 88 91 95 95 96 98 98 97 97 96 97 99 100 100 100 100 100 100 98 97 99 99 97 95 93 91 88 86 86 85 83 84 88 86 78 73 74 77 82 88 90 86 84 85 84 82 81 79 79 77 75 73 70 67 67 69 68 64 56 44 38 43 56 66 72 75 74 72 69 66 68 73 74 72 72 70 68 66 63
75 76 79 83 86 88 89 91 91 91 93 95 95 97 98 97 97 99 100 100 100 100 100 100 100 100 100 100 98 96 93 92 90 89 90 90 88 88 90 92 88 83 80 82 83 83 81 81 82 83 84 84 83 80 76 73 71 68 63 59 55 50 47 45 35 32 50 70 74 73 75 74 72 72 72 71 71 72 72 70 69 67 62 58 60
74 75 75 77 79 80 83 87 86 85 87 90 92 95 97 97 97 98 99 100 99 99 98 97 97 96 94 95 96 94 91 91 91 92 93 94 94 95 97 97 96 94 90 88 85 82 82 84 87 88 89 88 86 84 82 76 70 61 49 42 37 31 30 30 25 37 67 83 77 74 74 71 70 74 77 73 68 66 65 63 62 61 56 52 55
70 73 72 72 72 73 77 84 86 85 86 87 87 88 90 92 93 92 92 93 94 95 95 93 92 91 90 90 91 90 90 91 92 93 94 94 95 98 99 100 100 100 98 96 94 91 92 93 92 91 92 93 92 90 85 75 65 54 40 33 31 30 28 25 28 51 78 82 74 72 68 62 65 70 68 64 61 60 60 57 55 55 51 49 54
61 65 68 70 71 70 72 77 83 86 86 84 84 87 90 90 91 90 86 83 83 86 87 86 85 85 86 88 88 88 89 91 92 91 89 88 90 92 93 95 97 98 99 99 98 96 96 96 94 91 89 86 78 69 60 52 44 37 32 30 32 34 33 31 43 68 82 76 69 66 62 62 65 64 61 61 61 59 58 57 56 54 49 48 54
52 55 60 66 70 71 70 70 74 76 74 73 76 83 87 87 88 90 88 83 79 78 78 80 81 84 89 91 87 83 84 86 88 87 85 85 86 86 85 86 87 89 90 90 90 90 88 87 88 91 88 79 67 53 41 32 28 25 25 27 30 35 41 49 64 77 77 70 66 64 61 62 63 61 61 61 59 57 56 55 55 55 53 53 55
42 44 51 59 67 69 68 67 68 67 65 65 66 70 72 73 75 81 88 91 90 87 85 85 88 93 97 89 76 70 72 74 76 78 78 78 78 77 77 75 72 71 73 72 67 65 65 62 60 60 60 59 57 50 35 30 36 43 43 42 42 48 58 69 79 80 73 65 63 61 59 60 60 59 59 58 56 56 56 54 56 57 57 58 58
42 41 48 58 65 67 67 66 64 59 56 56 59 61 61 62 66 73 81 88 93 95 95 93 93 96 95 83 69 64 61 57 56 57 57 56 57 58 57 53 48 48 50 46 39 38 41 39 35 35 40 42 42 41 42 52 64 69 68 67 68 73 78 81 78 73 65 61 60 59 59 59 58 57 56 55 56 58 57 56 58 59 59 60 61
51 48 52 58 60 60 61 59 53 47 43 43 46 49 51 52 57 64 70 76 83 88 91 92 93 95 93 83 73 66 60 53 49 45 41 39 40 41 41 39 39 39 36 32 35 41 44 42 41 48 57 60 57 58 67 76 77 73 73 75 76 76 77 73 66 62 60 60 60 59 58 58 57 57 57 57 59 60 59 59 59 60 61 62 62
54 53 55 55 53 51 52 53 49 45 44 42 40 40 39 39 41 45 50 57 65 71 74 76 77 78 77 73 66 60 56 52 48 44 42 40 40 42 43 42 41 38 37 44 57 64 65 64 65 68 71 72 72 74 77 76 71 69 69 68 66 65 64 62 61 60 60 60 59 59 59 59 59 58 59 60 61 61 61 61 62 62 62 62 62
55 58 58 57 56 55 57 60 60 61 60 57 52 48 45 43 40 37 36 38 43 46 48 50 52 53 54 56 56 53 52 50 46 43 43 43 45 47 47 46 44 42 47 61 72 74 73 76 78 77 76 77 79 80 77 71 69 68 66 63 63 62 62 61 61 60 59 59 60 59 59 60 60 61 62 62 62 63 63 63 63 63 62 62 63
53 58 60 61 61 62 63 65 67 69 68 65 62 58 55 55 53 47 43 41 42 45 47 48 50 50 49 51 52 52 52 51 48 46 45 47 50 49 45 47 54 56 60 69 75 74 73 74 74 73 74 75 76 76 72 68 67 65 64 63 63 62 61 61 60 60 60 60 60 60 61 62 62 63 64 64 64 64 64 63 63 63 61 61 65
48 53 59 62 62 63 66 67 68 69 67 66 65 63 61 61 60 57 54 53 55 58 60 59 58 56 55 55 55 55 55 54 52 51 49 48 47 46 47 56 68 71 69 70 72 72 71 71 72 73 72 72 72 71 69 67 66 64 63 62 62 62 63 62 60 61 62 62 62 63 64 65 65 65 66 66 65 64 64 63 62 61 60 63 68
51 53 58 61 61 61 64 67 68 69 69 68 69 69 66 63 63 63 62 61 62 64 65 63 60 58 58 61 63 64 62 56 50 48 49 48 49 53 61 70 75 74 70 68 68 69 68 68 68 68 67 67 67 67 66 65 64 63 62 61 60 61 63 63 62 63 64 63 64 66 66 66 67 66 66 66 64 64 63 62 61 63 65 70 73
59 58 59 61 61 60 62 63 63 65 67 68 70 73 71 67 66 65 64 63 64 66 66 65 63 60 60 63 67 69 64 57 53 52 53 57 63 70 75 76 75 72 70 69 68 68 68 67 66 66 65 65 64 64 64 63 61 61 61 61 61 62 64 64 64 65 65 65 66 67 67 68 67 66 66 65 64 63 62 62 63 67 69 70 72
61 63 66 68 66 64 64 64 61 61 63 63 64 66 67 67 67 68 66 66 66 66 66 67 65 61 57 60 68 71 65 62 64 67 66 69 73 74 75 76 75 73 72 70 70 69 68 67 66 65 65 64 63 63 62 61 61 61 61 62 62 63 64 65 65 66 66 67 67 68 67 67 66 65 64 63 61 62 64 64 64 66 67 68 70
53 61 70 70 67 67 66 61 58 60 63 62 60 60 59 60 64 68 68 68 68 67 68 69 67 61 57 58 66 71 70 69 72 74 73 74 75 73 72 73 73 72 71 70 69 69 68 68 67 67 66 65 64 64 63 62 62 63 63 63 64 64 65 66 66 66 66 67 67 68 67 66 66 64 62 61 60 62 65 67 67 67 69 71 72
52 59 67 68 66 64 58 49 46 51 57 59 60 58 54 53 58 63 67 70 72 70 70 71 69 65 63 62 62 64 67 69 72 74 74 74 73 71 71 70 70 70 70 70 69 68 67 67 67 67 67 66 64 64 63 62 63 64 64 65 65 65 66 67 66 66 67 67 67 67 66 65 65 63 61 61 63 65 67 69 70 70 71 72 72
63 60 63 66 63 58 53 51 51 54 57 58 57 55 53 52 54 58 66 73 74 72 73 75 73 69 66 64 59 55 56 63 71 75 76 75 73 72 72 71 71 71 71 70 70 69 68 68 67 67 67 66 66 65 65 64 63 64 65 65 65 66 66 67 67 67 67 66 66 67 65 64 65 64 63 64 67 69 70 71 71 73 73 73 73
69 66 63 63 60 57 59 61 60 57 58 58 55 52 52 52 52 56 64 71 75 77 79 78 73 65 60 58 54 50 52 66 78 80 77 76 75 74 74 74 73 72 72 71 70 70 69 68 68 68 67 67 67 67 67 66 65 65 65 64 65 66 66 67 67 67 66 66 65 62 58 56 56 57 61 66 69 71 72 73 74 75 75 75 75
68 68 64 61 61 62 64 62 59 56 57 56 55 54 54 53 54 58 63 69 77 83 81 73 65 61 59 59 58 53 57 70 81 80 75 74 74 73 73 75 74 73 72 71 70 70 69 69 69 69 69 68 68 68 68 67 67 67 67 66 66 67 67 67 67 66 66 65 63 58 55 52 49 51 60 70 72 72 74 76 76 76 77 78 78
68 67 66 63 61 61 61 59 57 56 56 55 55 56 55 54 55 58 62 67 74 76 72 65 61 60 62 65 66 64 66 74 81 80 76 75 73 71 71 72 71 71 72 71 70 70 69 68 69 69 69 69 69 68 68 67 67 67 68 68 68 68 68 68 68 68 67 66 64 63 63 60 53 53 65 75 76 76 77 77 77 79 79 77 75
70 67 66 61 52 49 51 54 57 57 55 54 56 56 56 56 56 58 60 64 66 66 64 63 62 61 62 65 67 68 70 75 78 78 77 76 73 72 71 70 69 69 69 69 69 69 68 68 69 69 69 70 70 69 68 68 67 68 69 69 69 70 70 70 70 69 69 68 67 66 66 60 53 57 70 78 79 78 79 79 80 81 78 75 75
73 72 70 59 46 40 44 51 57 58 55 53 55 56 55 55 55 56 59 62 63 64 64 64 62 62 63 63 63 64 67 70 72 73 74 74 73 72 71 70 69 68 68 68 68 68 67 67 67 68 69 70 70 70 69 69 68 69 69 70 71 72 71 71 70 69 68 68 66 63 60 54 53 62 76 81 80 80 80 80 81 82 78 76 78
75 77 75 65 54 50 52 56 59 59 57 56 56 57 56 56 56 56 56 59 62 66 67 65 64 64 64 62 62 63 65 67 70 70 71 72 73 73 72 71 70 69 68 67 67 67 67 68 68 68 69 70 70 70 71 70 70 71 71 71 71 71 71 71 71 70 70 68 63 58 54 52 56 68 81 83 81 82 81 79 80 81 80 79 81
75 77 77 72 67 65 65 63 62 61 59 56 56 57 58 57 57 57 56 57 62 68 69 66 63 62 61 60 61 62 63 64 66 67 70 71 71 70 70 70 69 68 67 66 66 66 67 68 69 69 69 70 70 71 72 72 72 72 72 72 72 72 72 73 73 72 71 68 61 56 55 56 61 70 80 83 82 82 80 79 79 80 80 81 83
76 78 79 77 73 70 68 65 63 62 59 57 58 59 58 57 56 56 56 56 58 61 62 61 60 59 59 59 59 61 61 62 62 65 69 70 69 69 69 68 67 66 66 66 67 68 67 68 69 70 70 71 72 73 74 74 74 74 74 74 75 74 74 74 74 72 70 67 61 57 56 58 61 67 73 78 80 80 79 79 79 80 80 82 85
80 78 77 73 69 67 67 66 67 68 68 65 63 61 57 55 55 55 54 54 55 55 57 58 58 58 59 59 60 60 61 61 62 65 68 69 68 69 69 68 66 66 66 66 68 69 69 70 70 70 70 71 73 75 76 77 77 77 77 77 76 76 75 75 74 72 70 67 63 59 57 58 61 66 71 77 80 81 81 81 81 81 82 85 86
82 76 72 70 66 64 65 67 71 75 74 68 62 58 56 55 55 54 53 54 55 55 56 57 57 57 59 61 61 61 61 62 63 65 66 67 68 69 68 67 66 66 66 66 68 69 70 71 71 72 72 72 73 76 78 78 79 79 78 77 76 77 76 74 74 74 73 70 66 62 59 59 62 68 75 80 82 83 83 84 84 84 86 86 84
83 77 76 75 71 67 68 72 77 78 71 63 57 55 54 55 55 55 55 55 55 55 56 56 56 57 59 60 60 61 61 62 63 63 64 64 66 67 67 67 67 66 66 68 69 70 70 70 71 72 73 74 75 76 77 78 78 78 78 77 77 76 74 73 73 73 71 68 65 62 61 61 64 70 77 82 85 84 83 84 85 86 87 85 81
79 78 78 76 72 70 71 74 76 72 64 58 56 55 55 55 55 56 56 56 56 56 56 56 57 58 59 60 61 61 62 62 63 64 65 66 66 66 67 67 66 67 68 68 69 70 71 71 72 73 75 76 77 77 77 78 79 79 78 77 76 75 74 75 76 76 76 75 71 66 64 63 64 67 72 78 82 83 83 83 85 86 85 83 79
Wind_Speed
29 29 29 28 26 25 24 23 23 23 22 21 20 19 19 20 19 17 17 16 16 15 16 16 16 14 14 14 13 12 12 12 10 9 9 9 9 9 9 8 8 8 8 9 9 9 8 6 6 6 7 9 10 9 7 5 5 5 5 4 3 3 4 4 4 4 5 6 7 8 7 7 7 5 5 6 6 6 8 9 10 10 9 10 11
30 30 29 28 27 26 25 24 23 23 23 22 21 20 20 20 19 18 17 17 16 16 17 18 17 16 16 16 15 14 13 12 11 12 12 11 11 10 11 11 10 10 10 10 10 9 9 8 7 6 7 9 9 7 6 4 4 5 5 4 3 2 3 4 3 2 5 7 8 7 7 9 9 7 8 9 9 9 10 11 13 12 12 13 12
30 29 29 29 27 25 25 24 23 23 23 23 22 21 21 20 19 20 19 17 17 17 17 17 17 17 17 16 16 15 14 14 13 13 13 13 12 12 12 12 12 12 12 11 11 10 10 10 9 7 6 8 8 8 7 6 5 5 5 3 3 2 3 3 3 3 4 7 9 10 11 13 12 10 11 12 12 12 13 12 13 12 12 13 11
29 28 28 28 27 25 25 25 24 24 23 23 23 22 21 21 20 21 19 17 17 17 17 17 16 17 17 16 15 15 15 15 15 15 15 14 14 13 13 13 13 13 12 10 10 9 10 10 9 8 8 9 9 8 7 6 6 5 5 4 3 4 3 3 5 5 4 7 10 12 13 13 13 13 15 14 12 12 11 11 12 11 12 13 12
29 29 29 27 26 25 24 24 24 24 24 23 22 22 21 21 21 21 20 19 18 18 18 17 16 16 17 16 15 15 15 15 15 16 15 15 16 15 14 14 14 13 12 11 10 9 9 9 9 8 9 10 11 9 7 7 7 6 6 6 4 4 4 3 5 6 6 8 10 11 11 11 13 13 13 12 11 9 8 10 13 14 14 14 15
29 30 29 26 24 24 23 22 21 22 24 23 22 22 22 22 22 22 21 21 20 19 19 19 18 17 17 16 16 16 15 15 15 15 15 15 16 15 14 14 14 14 13 12 11 10 10 10 10 10 11 12 11 10 9 8 8 7 7 6 5 4 4 3 4 5 4 5 6 8 9 10 11 11 11 10 10 11 10 11 15 16 16 17 19
28 28 28 25 22 24 26 25 21 21 24 24 23 22 23 23 23 23 23 23 22 21 21 21 20 20 18 17 16 16 16 15 15 15 14 14 14 14 14 13 13 14 14 13 12 12 12 12 12 12 12 12 12 10 10 10 9 8 7 6 4 5 5 3 2 3 3 5 6 7 7 8 8 8 10 10 11 12 14 15 17 17 17 19 22
27 25 26 24 21 22 24 25 24 24 25 25 25 24 24 25 25 24 23 24 24 23 22 22 21 21 20 19 17 17 16 16 15 15 14 14 14 13 13 13 13 14 14 13 12 13 13 14 14 13 12 13 13 12 12 12 10 8 7 6 5 5 6 5 4 4 6 7 7 7 7 7 7 8 10 11 12 13 14 15 17 18 19 21 23
26 24 24 23 21 22 22 22 22 21 22 23 22 20 20 23 27 27 25 24 24 24 24 23 22 22 21 20 19 19 18 17 16 15 15 14 13 13 14 13 12 12 13 14 14 14 13 14 14 13 12 11 11 12 12 12 11 10 9 8 7 7 7 7 7 7 8 9 8 8 9 10 9 9 10 10 10 11 12 14 16 19 22 24 23
14 16 19 20 20 21 22 22 19 16 16 19 18 16 15 17 21 24 25 25 25 25 25 24 23 22 22 22 20 20 20 18 17 16 16 15 14 14 15 13 10 9 9 10 12 13 12 12 13 12 11 10 10 11 12 12 12 12 11 10 9 8 8 9 9 9 9 9 9 10 11 12 12 11 10 9 9 10 12 14 16 19 22 23 22
8 7 7 11 16 20 22 21 18 14 13 16 17 15 14 14 15 17 19 22 23 25 25 24 23 22 21 21 21 20 20 20 18 17 17 17 16 15 14 13 12 12 11 8 8 9 10 11 11 10 11 11 12 12 12 12 13 13 12 11 9 9 9 9 8 8 8 9 10 10 11 13 14 13 12 11 10 11 12 14 15 17 18 17 16
14 11 7 6 9 13 15 16 15 14 13 14 14 13 13 13 13 13 15 17 18 20 21 22 22 22 21 21 20 20 20 20 20 18 17 17 17 16 14 13 13 13 13 11 9 9 10 10 10 11 11 11 12 13 14 14 14 14 13 12 10 9 8 7 7 7 8 9 11 11 11 13 14 13 11 11 11 11 13 14 14 15 14 13 14
18 19 15 11 9 6 6 7 8 8 8 9 9 9 9 9 10 11 12 13 14 15 16 19 20 21 20 20 21 20 20 20 20 19 18 17 17 17 16 16 16 13 12 11 10 9 10 10 9 10 11 11 11 12 13 14 13 13 13 12 10 8 7 6 6 6 7 9 11 11 11 11 12 11 9 10 11 12 13 14 14 13 12 12 13
13 15 14 14 14 10 8 7 6 7 6 5 6 7 7 7 8 9 10 11 12 13 14 16 18 18 18 18 19 20 20 21 21 19 19 18 18 18 17 17 18 16 14 12 10 9 10 11 10 10 12 13 12 12 11 12 13 13 12 11 9 7 7 6 5 6 7 8 10 11 9 8 9 10 10 10 11 13 14 14 14 11 9 8 10
11 10 10 11 13 13 13 12 13 15 13 10 9 8 8 8 8 8 9 10 12 13 14 15 16 17 17 17 17 18 19 20 20 19 18 18 18 18 17 17 17 17 16 14 10 9 12 12 11 11 13 13 13 11 11 12 13 13 11 9 8 7 7 7 6 6 6 7 8 9 8 8 9 12 13 13 14 14 14 14 12 8 5 6 8
12 10 9 8 8 10 11 11 11 12 12 11 8 5 5 6 7 9 9 10 12 12 12 13 13 14 16 16 17 17 18 18 18 17 15 15 15 15 14 15 15 17 18 15 11 11 13 13 12 12 13 14 14 12 11 12 13 11 10 9 9 8 7 8 8 8 8 8 8 8 9 10 12 14 15 15 14 13 13 13 9 3 2 5 8
6 5 5 5 4 5 6 7 8 9 10 11 10 9 10 10 10 11 12 12 13 13 12 12 14 14 14 15 16 17 17 17 16 15 12 11 12 12 12 12 14 17 19 16 13 13 13 13 13 12 13 14 14 12 12 13 13 13 12 11 11 9 9 9 10 9 8 8 7 8 10 12 13 14 15 14 13 12 11 9 3 2 3 5 6
8 6 5 4 4 4 3 3 5 9 11 9 9 11 14 14 13 12 12 12 12 12 13 13 14 12 11 12 15 16 16 15 15 14 12 10 10 11 12 12 15 18 19 17 15 14 14 13 13 13 13 13 12 11 11 11 13 13 13 12 11 10 10 10 10 10 9 8 8 9 10 10 9 9 8 8 7 4 2 1 2 3 4 5 5
13 12 11 9 8 7 5 3 3 9 10 8 8 9 10 12 12 12 13 12 11 12 12 11 11 12 14 14 14 14 14 14 14 14 12 11 12 13 13 13 16 19 20 18 17 16 15 14 13 13 13 12 12 12 11 10 11 11 11 11 11 10 10 10 10 10 9 9 9 8 6 3 3 3 3 4 5 7 7 6 4 4 5 6 7
12 12 11 11 12 13 11 7 5 6 6 6 7 8 8 10 10 11 11 11 11 11 12 11 13 17 17 15 13 12 11 11 12 12 12 10 11 13 14 15 17 19 20 18 17 16 15 13 12 11 11 11 11 12 11 10 10 9 10 10 10 10 10 10 9 8 8 8 6 4 1 2 4 5 7 8 9 9 8 6 5 6 6 7 9
12 11 10 10 12 13 11 9 7 7 6 5 4 4 3 5 7 9 9 8 7 8 13 16 17 17 15 12 11 10 9 9 9 10 11 10 10 11 14 16 18 18 19 18 16 15 12 10 10 11 11 11 10 10 10 9 9 9 9 9 9 10 10 9 8 7 5 4 4 1 1 3 4 5 7 8 8 7 7 7 6 6 7 8 9
12 12 12 11 11 11 10 8 7 8 8 8 9 9 8 6 4 3 5 5 4 8 12 15 15 13 10 8 7 7 6 6 5 6 7 9 10 11 14 17 19 20 20 20 18 16 13 12 12 11 10 10 10 9 8 8 8 9 9 9 10 10 9 9 8 6 4 4 3 2 3 5 5 6 7 7 8 7 6 6 6 7 8 10 10
12 12 13 12 11 11 10 8 8 10 11 12 12 12 12 11 10 8 7 8 9 11 12 12 13 12 10 8 6 5 3 3 3 3 4 6 9 10 12 16 18 19 22 22 20 19 17 16 15 13 11 10 9 8 8 8 9 9 10 10 10 10 9 9 8 6 6 6 4 5 7 8 7 8 9 9 9 8 7 6 6 6 8 8 9
12 12 12 12 12 13 13 12 11 11 12 13 13 13 12 12 12 12 12 12 13 14 13 12 12 12 11 10 9 7 5 4 3 3 2 3 3 4 7 9 9 11 17 20 19 19 19 18 16 14 12 10 9 9 9 9 10 11 11 10 9 9 8 7 7 8 8 7 7 9 10 8 8 9 10 10 9 7 6 6 6 7 7 7 7
10 10 11 12 12 14 14 14 13 12 11 10 10 10 11 11 11 12 12 13 15 15 14 12 12 13 13 11 10 8 6 5 5 5 4 4 4 4 1 1 3 7 13 15 15 15 16 15 14 13 12 11 9 8 9 10 10 9 10 10 9 9 7 5 6 8 9 10 11 12 11 9 9 9 9 7 5 4 5 6 6 7 6 5 6
10 9 10 11 12 13 15 15 15 14 13 11 10 9 9 9 9 10 10 12 14 15 14 13 13 14 13 11 9 8 6 6 7 7 6 5 6 6 5 5 6 5 6 8 7 7 8 8 10 10 11 10 9 8 8 8 8 7 7 8 9 8 6 5 6 8 10 12 13 13 12 12 10 8 6 4 4 6 7 7 7 8 8 5 4
9 8 8 11 12 13 14 14 14 14 13 13 13 12 11 10 10 10 10 11 11 11 12 12 12 11 10 9 8 7 7 7 7 7 7 6 6 5 5 6 7 5 4 4 2 1 3 5 6 7 8 9 9 9 8 6 6 6 6 6 7 6 5 4 6 10 13 14 14 14 13 11 9 7 5 6 7 8 9 8 8 9 8 6 5
6 6 8 12 15 14 14 13 13 12 11 11 12 13 12 12 12 13 12 11 10 9 9 9 8 7 7 7 6 5 5 5 5 6 6 5 5 4 4 5 6 6 5 5 3 3 3 3 4 4 4 5 7 8 6 3 2 2 2 3 4 6 8 9 11 13 15 15 14 13 11 9 8 7 7 8 10 10 8 7 8 9 8 7 10
5 6 9 14 16 16 15 13 11 10 10 10 12 13 13 12 12 13 13 11 10 9 8 8 6 5 5 5 4 3 4 4 4 5 5 5 5 5 5 6 6 7 7 6 3 1 1 1 3 2 2 2 3 4 3 6 8 9 10 10 12 14 15 16 16 16 15 14 13 12 10 9 9 9 9 10 12 10 8 8 8 9 8 10 13
8 10 12 15 16 15 15 14 13 12 11 11 13 14 14 12 11 11 11 10 9 8 8 8 6 4 3 3 3 2 2 2 3 4 4 5 6 6 6 7 7 7 7 6 4 3 4 6 6 6 7 8 8 9 13 15 16 17 16 17 18 18 18 18 17 15 14 13 13 12 11 10 11 10 10 11 11 10 10 9 9 9 9 12 14
12 12 13 14 14 14 14 13 13 13 12 11 12 14 15 14 13 12 11 10 9 8 8 8 6 4 3 3 2 1 1 1 2 3 4 5 5 6 6 7 7 7 6 5 6 8 11 14 16 16 17 18 17 17 18 19 19 19 19 19 18 17 17 16 15 13 13 12 12 11 11 11 11 11 11 11 10 10 10 10 10 11 12 14 15
11 12 13 13 12 12 12 12 11 11 10 10 10 11 13 15 14 13 12 11 11 10 9 9 7 5 4 3 3 2 2 2 2 3 4 5 6 7 7 6 7 7 6 7 11 15 17 19 19 19 20 21 20 20 19 19 19 19 18 18 17 15 15 14 12 11 11 11 11 11 11 11 11 11 11 10 10 10 10 11 12 13 13 14 15
9 10 12 12 12 13 13 12 11 10 9 8 8 9 10 12 14 14 13 12 12 11 10 9 9 8 8 8 7 6 5 4 3 3 4 5 6 6 6 6 7 8 8 11 16 19 19 20 20 20 20 21 20 20 20 19 18 17 17 16 15 14 13 11 10 10 12 12 11 12 12 11 11 11 11 10 10 11 12 12 13 13 13 14 14
8 8 9 10 11 12 12 13 12 11 9 8 7 8 8 9 11 14 14 14 13 11 9 9 9 10 11 11 10 9 7 5 4 4 4 5 5 5 5 6 9 11 13 15 18 19 20 20 21 20 20 20 19 19 18 18 16 16 15 13 12 11 10 9 9 11 12 12 12 12 12 11 11 10 10 11 11 12 12 13 13 13 13 13 12
7 7 7 8 9 10 10 10 10 11 10 9 8 8 8 8 9 11 12 14 14 12 10 9 9 10 11 12 12 11 9 8 7 6 5 6 6 7 9 13 15 16 17 18 19 20 19 20 19 18 18 18 17 17 16 15 14 13 12 11 11 10 10 9 10 11 11 11 12 12 11 11 11 10 10 11 11 12 12 12 12 12 12 12 12
8 8 8 8 8 8 8 7 8 9 9 10 9 8 6 7 9 11 11 13 14 13 11 9 8 9 10 12 13 12 11 10 10 9 8 8 8 10 14 18 19 19 18 19 19 19 19 18 17 16 16 15 15 14 14 13 13 12 12 12 11 11 11 11 11 11 10 11 11 11 10 11 11 10 10 10 11 11 11 11 11 11 12 12 12
11 11 10 9 9 8 6 6 7 8 9 9 9 8 7 7 7 9 11 12 14 14 12 9 8 8 8 10 11 11 10 9 9 10 10 9 9 12 16 18 18 18 18 17 16 16 16 15 14 14 14 13 12 12 11 10 10 10 11 11 12 12 12 12 11 10 10 10 11 10 10 10 10 10 9 10 10 10 10 10 11 11 12 12 12
11 11 11 10 9 8 6 5 6 8 10 10 8 7 6 7 8 9 11 13 15 15 13 10 8 7 6 6 7 7 6 4 4 6 8 9 9 12 14 15 16 17 17 15 14 14 14 13 12 12 13 12 11 11 10 9 9 9 11 12 13 13 13 12 11 10 10 10 10 10 9 10 10 9 9 9 9 9 9 9 10 11 11 11 12
11 12 11 10 9 8 8 7 7 8 10 10 8 7 6 6 7 9 11 14 16 16 14 11 9 6 4 3 3 4 3 1 2 4 7 8 9 10 11 12 13 13 13 12 12 11 12 12 11 11 11 11 10 10 9 8 8 9 10 12 12 12 11 10 10 10 10 10 10 9 8 9 9 8 8 8 8 8 8 9 10 11 11 11 11
12 13 14 12 10 10 10 8 7 7 8 9 9 8 8 7 7 9 11 15 17 18 15 11 8 6 4 4 3 2 1 4 5 5 6 8 8 8 8 9 10 10 10 9 9 9 10 10 9 9 9 8 8 8 7 7 7 8 8 9 9 10 10 9 9 9 9 9 9 9 9 9 8 7 7 8 8 7 8 8 9 9 10 10 10
14 14 15 15 13 12 12 10 9 8 8 9 10 10 10 9 9 10 13 16 17 17 15 11 8 7 5 5 4 3 4 7 8 7 7 9 9 9 8 8 7 7 7 7 6 6 8 8 8 8 7 7 6 6 5 5 6 6 7 7 8 9 9 8 7 7 7 8 8 9 10 10 9 7 6 7 7 6 7 7 8 8 8 9 9
16 15 16 15 15 14 13 12 10 9 8 9 10 11 11 11 11 12 14 16 17 17 15 12 10 9 9 8 6 5 7 9 10 9 9 9 9 10 10 9 8 7 6 6 5 5 6 6 6 6 5 4 4 4 4 4 4 5 6 6 6 7 7 7 6 6 6 7 8 9 10 11 9 6 5 5 6 6 6 6 6 7 8 8 8
15 16 16 16 17 16 15 13 11 10 10 10 10 11 12 12 12 12 14 15 16 15 14 13 12 11 10 8 7 7 8 10 10 9 8 8 8 9 9 8 7 7 6 4 4 4 4 4 5 5 4 3 3 3 3 3 3 3 4 5 5 6 6 6 6 6 6 8 9 10 10 10 7 4 3 5 5 5 6 6 6 7 7 7 7
16 18 17 15 16 16 16 15 13 12 12 11 11 11 11 10 10 11 11 13 13 13 13 13 13 11 9 8 7 6 7 8 8 8 8 7 6 7 7 7 7 7 5 3 2 2 1 2 3 2 2 2 3 3 3 3 3 2 3 3 5 5 6 5 5 6 8 9 10 10 9 8 5 2 3 5 5 5 6 6 6 6 6 7 9
16 18 17 16 15 14 14 15 15 14 14 12 11 11 10 9 9 10 10 11 12 13 14 13 12 11 10 9 7 7 7 7 7 7 7 7 6 6 5 4 4 4 4 3 2 1 2 2 2 1 1 1 2 3 4 3 2 2 2 3 3 5 5 6 7 8 9 10 10 9 7 5 2 1 2 4 4 4 5 5 5 6 7 9 11
17 18 18 17 15 12 11 14 16 16 15 13 13 12 10 9 10 11 11 12 14 14 14 12 11 10 9 8 6 7 7 7 6 6 7 7 6 5 4 3 2 2 2 2 2 2 2 2 1 0 1 1 2 3 3 3 3 3 3 3 4 5 6 8 9 10 11 11 10 8 5 3 2 0 1 2 3 3 3 4 5 7 9 10 11
19 19 19 19 17 14 12 13 14 16 14 13 12 12 11 12 14 14 13 13 13 13 12 11 10 9 8 6 6 6 7 7 6 7 8 8 6 5 4 4 3 3 3 3 4 3 3 2 1 0 1 2 3 4 4 3 3 3 3 4 5 7 8 10 11 11 11 10 9 7 5 4 3 2 0 2 2 1 2 4 6 8 10 10 12
18 20 21 21 21 18 13 11 11 13 13 12 13 15 15 16 16 15 13 12 10 10 10 10 9 8 8 9 8 8 8 8 8 9 9 8 6 6 6 5 4 3 3 3 4 4 4 4 2 1 1 1 2 4 4 3 3 3 4 6 7 9 10 11 11 11 10 8 7 6 5 5 4 3 1 2 2 1 4 6 8 10 11 12 13
19 21 22 21 19 18 16 15 16 17 17 17 18 19 18 17 16 15 13 12 10 9 9 9 8 8 9 10 10 9 8 9 9 9 9 8 7 7 7 7 6 5 3 1 2 4 4 4 2 1 1 1 1 2 3 3 3 4 6 8 9 11 12 12 12 10 8 7 6 6 5 5 4 3 3 3 2 4 6 7 8 10 12 13 14
18 19 20 19 17 16 15 16 17 19 21 22 22 20 19 18 17 15 14 12 11 10 10 9 9 9 10 10 9 8 7 6 6 6 6 6 7 7 7 7 6 5 4 3 2 3 3 2 1 1 1 1 1 1 2 3 5 6 8 9 11 12 13 12 11 9 8 6 6 5 4 4 3 3 5 5 5 5 6 7 9 11 12 14 14
17 16 16 15 14 12 13 15 17 19 20 20 19 19 20 19 16 14 13 13 12 11 10 9 9 9 9 9 9 8 7 7 6 5 5 5 6 6 5 5 4 4 5 4 2 1 2 2 2 1 1 0 0 1 3 4 6 7 9 10 11 11 10 9 8 8 8 7 6 5 4 4 4 4 5 6 5 6 6 8 9 11 12 14 14
Wind_Direction
197 200 202 203 206 207 207 209 212 213 213 213 214 216 216 215 215 214 215 217 218 216 216 217 217 218 217 215 220 225 224 226 230 227 229 235 237 237 232 235 250 257 260 264 264 262 263 277 290 280 277 283 284 279 272 289 320 302 277 276 260 248 249 233 229 276 315 326 322 327 337 334 338 347 338 342 354 350 348 353 357 6 13 3 0
196 200 202 204 208 209 208 211 213 214 214 214 215 217 216 214 214 216 218 218 219 219 218 220 222 222 221 222 226 228 226 228 232 230 230 235 238 238 232 233 244 250 254 264 270 269 265 267 273 277 288 290 283 280 276 288 317 299 274 283 287 255 234 227 226 284 308 323 337 349 360 354 348 350 343 336 334 331 336 345 349 350 347 340 340
197 199 201 205 209 210 210 212 212 214 214 215 216 217 215 214 214 216 218 219 221 221 221 223 224 223 223 225 228 229 227 230 233 231 230 234 237 236 232 234 242 248 255 264 269 269 265 262 262 263 276 281 281 288 286 279 290 286 267 278 294 258 222 237 262 276 292 318 340 349 352 353 352 352 349 344 340 338 341 349 353 353 354 352 348
196 199 201 204 207 210 211 211 211 213 215 216 217 219 218 216 214 215 217 220 224 224 221 220 222 223 225 227 228 226 228 232 235 233 233 235 237 238 236 238 243 247 254 261 264 265 260 259 261 257 259 268 276 286 283 269 276 281 264 264 279 272 253 255 269 271 284 311 327 335 342 348 350 353 355 351 350 357 6 14 14 13 14 11 7
196 200 203 204 206 208 208 209 210 211 213 216 218 219 222 220 216 216 218 221 223 224 221 218 220 223 225 227 225 224 230 235 235 235 237 239 239 240 241 244 247 248 251 257 262 257 248 251 259 258 258 264 269 272 268 262 270 272 260 259 264 265 265 267 272 280 296 312 322 333 343 344 345 359 11 9 8 16 21 17 12 6 1 360 1
195 200 202 202 202 203 203 206 213 216 213 214 218 220 222 223 221 220 220 221 222 222 221 220 221 222 223 225 225 226 231 234 234 236 239 240 240 242 246 250 251 250 250 256 259 253 247 252 260 261 262 264 265 264 261 262 264 259 252 253 249 247 260 272 274 285 305 320 327 335 340 339 344 4 23 21 14 12 3 353 352 354 355 353 352
191 194 197 198 200 202 202 202 211 221 219 215 218 223 224 224 223 223 222 222 223 223 222 221 222 223 223 224 226 227 228 230 232 232 234 237 240 243 247 252 252 248 248 254 258 256 256 259 262 261 259 258 259 258 259 262 262 257 254 253 246 243 249 254 251 271 300 315 323 327 327 332 343 0 8 1 357 2 1 353 347 349 351 350 349
188 190 193 197 200 202 200 200 206 218 222 218 218 222 225 226 225 223 223 223 224 224 222 221 223 224 224 225 227 226 225 228 230 230 231 234 238 241 248 256 257 252 250 254 258 258 258 259 263 261 254 255 257 254 256 261 260 258 254 245 236 235 240 250 260 278 297 304 310 317 317 319 329 343 348 346 348 354 357 353 348 346 346 346 349
187 191 195 198 200 199 199 201 206 212 216 216 216 218 220 223 225 225 225 226 226 225 224 224 225 225 224 226 228 226 226 228 231 233 233 234 235 239 246 255 258 259 261 262 259 257 259 263 266 262 253 253 255 252 253 256 253 250 244 234 229 234 244 258 268 279 292 295 295 302 306 306 311 325 336 342 347 347 345 344 344 343 342 342 347
175 184 194 200 203 204 201 200 200 199 199 202 205 206 201 203 211 217 221 225 226 225 224 224 226 227 226 226 226 225 226 227 230 233 233 234 235 238 245 249 252 260 271 275 269 263 262 265 264 255 246 245 246 245 245 247 245 245 240 231 229 244 256 262 266 274 283 285 286 294 299 300 304 314 321 326 329 332 338 343 342 342 342 341 344
150 144 175 196 203 202 197 195 197 198 193 188 188 189 185 181 183 191 201 209 215 218 219 221 224 226 226 226 225 224 224 225 228 231 232 233 234 237 242 247 250 250 250 263 278 268 260 262 255 243 241 243 241 237 235 237 240 238 233 232 243 257 260 256 258 265 272 277 283 288 292 297 303 309 313 314 317 325 335 339 339 341 344 341 337
167 160 151 167 195 198 192 192 200 206 202 193 188 188 186 182 177 176 180 188 197 205 211 215 220 223 224 225 225 225 225 226 228 229 229 229 231 232 235 241 250 249 241 245 257 254 253 254 241 231 236 242 241 236 234 237 238 233 233 242 252 253 250 250 253 259 268 275 281 283 288 296 304 310 316 317 315 320 326 330 334 338 340 335 327
171 176 176 181 196 212 209 193 192 201 202 196 194 194 195 195 192 187 185 185 189 196 203 210 214 218 220 220 222 225 226 227 227 228 228 227 227 230 234 239 245 244 238 240 245 243 242 237 223 222 230 235 235 233 232 236 235 233 237 243 241 241 247 252 254 261 269 272 277 282 288 295 300 305 315 316 309 312 318 323 329 331 332 333 329
169 169 173 186 197 219 251 247 225 230 230 211 205 208 210 213 210 207 203 198 195 195 198 201 203 207 211 210 213 218 222 225 229 231 232 230 230 234 235 237 240 237 230 232 238 235 228 220 215 220 227 231 233 230 229 230 228 229 234 235 233 239 250 252 254 264 269 270 277 283 286 288 289 295 304 303 300 305 312 316 320 323 329 336 336
196 178 162 174 190 210 237 246 237 236 237 232 225 218 213 213 216 218 212 204 203 203 201 199 199 202 206 207 209 214 219 224 230 234 235 234 235 238 237 235 235 230 221 220 224 224 219 216 217 223 227 230 231 229 228 224 220 221 223 222 222 228 234 239 246 252 254 263 275 280 282 285 288 295 298 294 292 297 301 305 309 315 332 347 355
194 189 160 153 170 191 213 225 224 224 228 229 230 226 219 219 218 220 215 203 200 200 197 195 195 197 203 207 208 210 212 218 224 230 234 234 234 235 234 233 229 219 211 208 208 212 216 217 219 223 226 228 229 228 225 218 214 212 207 203 205 213 225 231 230 231 238 249 260 272 287 296 297 296 292 286 285 287 290 296 298 295 357 9 12
168 184 163 157 170 181 199 210 205 204 214 224 236 243 244 243 235 226 222 211 201 197 191 185 181 185 196 205 209 208 208 210 216 222 225 227 231 231 227 224 220 213 209 206 208 213 217 220 223 224 224 228 231 229 221 216 213 210 206 205 208 216 228 229 224 226 234 242 256 279 294 298 296 292 288 285 283 279 279 283 262 151 36 16 6
121 114 107 123 153 164 175 197 212 224 226 223 225 230 233 236 234 224 219 216 207 197 189 182 178 182 198 211 212 213 213 213 216 222 221 216 220 227 225 218 213 212 209 207 210 217 218 220 222 223 224 228 230 226 219 215 214 210 209 212 215 219 224 224 225 228 234 248 270 285 290 295 301 302 298 293 285 266 261 252 136 106 40 22 0
112 99 94 101 110 110 98 95 212 232 231 215 202 207 214 221 225 222 222 223 216 203 197 194 200 212 224 228 223 220 223 224 224 227 227 217 211 217 224 219 212 211 210 207 208 210 213 217 219 219 222 225 225 223 219 215 215 215 216 217 219 221 222 225 232 239 250 267 278 280 285 309 0 32 53 68 88 100 97 92 95 83 67 57 38
113 103 100 99 94 89 88 100 145 185 194 188 189 197 204 212 220 223 224 226 221 207 194 190 201 213 221 224 221 218 224 230 230 230 229 220 208 209 216 216 213 210 207 205 202 199 202 211 214 212 214 215 213 215 214 213 216 220 223 225 225 222 223 229 237 247 265 274 266 262 316 75 93 85 75 72 74 81 83 79 74 71 73 67 55
119 115 110 102 96 94 99 110 119 122 127 133 137 149 184 208 216 217 218 222 212 178 159 159 173 188 199 205 207 208 215 227 235 236 234 226 215 211 212 215 218 213 205 200 196 190 190 199 203 202 204 204 204 206 208 213 218 221 224 228 228 226 229 233 234 242 255 244 216 193 77 122 121 85 65 62 66 74 75 68 60 53 52 50 47
117 112 111 111 112 114 119 122 107 96 99 100 94 91 89 90 110 170 196 200 175 142 134 136 145 153 162 174 181 190 201 211 226 238 237 227 222 219 216 217 219 214 205 202 202 200 202 207 207 205 207 208 207 208 213 219 224 227 229 231 230 232 233 230 228 226 209 181 159 93 101 129 117 87 77 75 77 84 83 71 59 45 41 43 45
122 117 116 118 120 118 120 123 108 94 93 94 92 94 97 98 100 108 124 134 130 124 121 121 123 123 123 122 124 134 155 172 195 222 226 216 218 220 217 218 221 216 207 204 204 202 202 204 204 208 214 218 219 221 225 234 240 241 239 237 235 236 234 229 224 204 177 163 140 111 114 116 102 93 96 95 94 94 82 68 57 39 34 40 46
128 126 124 124 121 113 110 114 112 101 96 95 93 92 93 98 104 109 115 119 118 117 119 120 120 117 112 109 105 107 115 126 147 164 159 171 194 206 209 211 210 194 186 187 190 192 191 192 197 204 211 219 229 237 240 245 247 247 246 246 244 243 239 230 209 184 170 161 142 123 116 109 99 96 95 95 99 96 74 58 49 37 37 50 55
132 134 132 127 121 115 111 112 114 110 103 98 98 97 94 93 97 102 107 109 110 112 115 115 114 111 109 105 99 95 98 97 96 97 99 100 88 75 87 159 103 122 143 157 170 182 186 191 198 206 212 217 225 237 246 248 248 249 253 253 251 250 246 225 194 175 160 149 140 129 118 112 107 102 97 95 95 75 43 30 24 22 30 55 67
126 136 143 140 131 125 121 117 114 112 105 98 99 104 103 100 100 104 107 105 104 106 110 112 113 111 108 104 97 92 89 84 81 85 91 93 83 68 43 31 41 70 120 136 152 175 187 200 211 221 231 234 232 236 246 251 250 250 250 246 243 242 235 214 186 166 149 140 137 130 123 120 117 112 106 91 63 45 36 26 20 24 28 36 55
117 126 144 157 153 141 133 126 118 113 106 100 100 100 100 101 102 105 113 116 113 110 109 111 113 112 108 104 99 95 90 85 82 83 82 78 73 61 44 35 31 28 46 63 58 247 242 239 234 235 244 247 244 242 251 269 277 268 251 237 234 228 211 188 170 157 147 138 132 126 123 125 123 112 92 72 60 55 49 41 38 39 34 27 31
113 112 131 152 155 148 141 135 125 117 109 105 104 100 95 94 93 94 100 112 124 129 129 127 126 126 123 114 101 89 86 80 72 66 62 57 51 42 29 25 23 19 21 20 355 306 276 249 227 222 234 239 239 242 255 299 310 253 202 184 181 166 153 147 143 140 136 131 125 120 115 114 106 88 74 69 67 64 59 55 55 53 45 40 40
107 111 129 144 147 144 141 137 130 124 118 112 108 102 95 92 91 90 89 93 103 116 124 125 126 132 134 122 98 76 73 63 44 33 27 19 14 9 7 10 13 15 18 22 24 11 324 201 194 207 225 226 225 214 168 125 119 120 120 121 126 129 131 130 127 124 122 120 114 106 98 93 86 78 76 76 73 69 64 62 64 61 55 51 47
117 118 129 139 140 135 131 126 120 117 115 112 109 105 101 97 96 96 94 92 94 99 102 100 96 89 94 100 91 73 51 21 5 1 358 353 351 355 0 3 5 13 22 32 47 65 77 89 98 101 103 105 109 119 126 125 118 111 109 111 113 115 115 114 111 110 110 106 99 92 87 84 81 81 83 81 77 72 68 66 65 61 56 51 46
126 123 129 136 138 135 129 124 119 115 113 113 112 110 108 104 99 97 97 97 97 95 95 95 92 82 74 79 85 74 7 319 321 327 331 336 340 347 356 3 12 24 33 52 81 95 97 94 93 96 100 100 99 105 112 113 109 106 105 104 104 105 105 104 104 106 104 99 94 90 87 86 86 87 88 87 84 76 69 64 59 54 51 49 46
134 131 133 136 139 141 139 138 134 129 127 126 124 121 117 114 109 104 101 99 97 91 86 84 81 76 67 55 36 8 341 323 314 314 321 335 343 351 3 19 35 47 61 89 98 100 100 97 93 93 96 97 99 103 106 104 103 105 103 100 98 98 99 101 106 109 105 101 97 95 93 93 95 95 92 90 84 73 63 54 49 46 44 45 46
152 149 149 149 150 150 150 149 149 149 148 146 147 144 134 128 126 123 117 112 105 98 89 79 71 65 62 57 48 35 17 356 337 328 335 347 358 11 24 37 55 75 96 107 104 99 97 95 91 90 94 96 99 103 103 100 100 100 98 97 95 94 97 102 107 107 104 102 102 101 100 99 99 97 91 83 73 64 57 50 44 41 39 42 43
172 167 167 166 163 160 157 153 151 150 149 154 167 176 168 152 142 139 137 132 123 112 101 89 81 79 74 66 57 50 39 24 16 10 7 18 34 47 59 74 88 97 104 107 103 99 96 94 91 91 94 97 100 101 99 97 96 97 97 97 97 97 101 104 103 101 102 102 101 99 98 96 93 87 80 71 63 57 52 47 43 41 42 44 42
179 172 174 176 173 169 168 167 163 157 149 144 152 173 189 187 173 162 156 148 138 130 118 106 98 94 82 66 54 52 52 50 53 53 50 56 72 91 101 101 100 99 98 98 98 96 94 92 91 92 93 95 97 99 97 93 91 91 92 96 100 104 106 105 103 102 102 100 96 92 90 86 81 73 66 60 55 51 48 47 47 46 44 43 39
189 177 178 184 184 180 180 184 186 182 168 150 139 143 161 182 191 189 178 161 150 142 134 125 117 108 90 69 57 57 59 60 64 63 59 66 92 111 109 103 99 96 95 95 95 95 93 91 92 92 92 92 94 97 98 97 94 94 97 102 107 110 109 106 105 104 100 96 91 86 80 75 68 60 55 53 53 53 50 47 46 44 40 38 36
200 192 187 188 192 199 205 209 209 202 187 167 149 139 131 134 159 180 183 175 165 154 145 140 134 120 99 77 66 64 61 60 66 68 66 73 96 109 105 102 101 99 97 96 97 96 93 92 95 99 100 100 100 100 102 102 102 107 112 114 112 111 110 109 107 105 100 93 85 77 72 66 58 50 47 49 52 55 52 48 46 45 42 40 39
200 195 191 191 197 203 205 198 193 189 181 169 156 149 141 132 139 158 172 178 172 160 151 152 149 132 106 79 67 62 56 54 69 77 78 83 97 104 104 104 104 102 98 96 96 96 92 90 93 100 104 104 104 102 101 101 104 110 115 117 115 113 111 109 105 101 97 89 81 73 65 59 52 45 43 47 51 53 52 49 46 43 42 41 38
213 206 200 200 200 190 176 163 158 166 173 169 159 154 154 145 140 150 164 171 169 163 160 163 158 139 116 96 69 46 39 75 115 96 91 94 100 104 108 108 105 104 102 98 95 93 92 90 90 94 98 99 99 98 98 98 100 104 109 112 112 110 106 102 96 91 87 82 77 68 56 51 49 44 43 47 49 50 50 49 46 45 42 39 35
222 213 207 206 202 188 178 174 176 179 179 177 172 167 161 151 143 143 151 159 164 165 165 161 148 126 105 95 85 68 114 144 137 117 105 106 107 108 108 106 101 100 100 98 94 92 92 93 94 94 95 95 95 96 96 95 96 101 104 106 106 104 99 93 87 81 75 69 64 56 48 42 39 38 41 44 45 48 49 47 45 46 43 39 37
221 213 209 210 209 201 193 193 198 197 189 182 178 170 158 147 140 138 144 152 161 164 162 153 140 126 108 91 87 105 140 143 138 127 114 110 111 111 110 107 104 102 102 104 104 100 97 97 96 95 96 97 97 96 93 88 91 99 103 104 105 103 98 91 82 71 62 54 49 43 36 29 24 27 39 45 46 50 48 41 39 40 37 33 33
217 216 216 216 214 209 202 197 196 191 179 170 167 163 156 147 138 136 142 151 158 160 158 151 139 126 113 101 101 120 136 138 137 133 124 117 114 113 112 112 113 111 107 108 110 105 102 101 96 91 92 96 94 92 85 80 86 99 106 106 105 100 95 90 79 65 52 41 31 22 15 13 12 19 41 49 45 43 39 33 33 32 27 22 23
223 224 226 226 225 221 211 203 199 194 185 172 162 159 157 149 139 136 142 151 158 161 156 147 137 128 120 113 114 123 128 130 131 131 127 123 120 115 112 112 112 111 109 108 100 91 89 87 83 75 71 71 73 75 78 80 85 93 101 103 102 98 94 86 69 49 29 15 7 1 358 359 1 14 46 45 35 30 31 30 29 27 22 17 14
235 233 230 229 230 224 213 205 202 198 191 180 168 164 163 156 147 143 144 148 156 161 155 144 137 137 136 132 127 123 119 122 128 133 134 138 139 131 122 115 111 112 116 113 91 68 47 42 41 30 17 25 42 59 73 80 84 84 87 96 100 97 88 71 47 29 13 2 355 350 347 348 355 39 54 36 25 27 32 30 24 18 11 4 358
233 232 227 225 228 229 221 214 206 195 186 179 172 170 170 163 153 146 140 138 145 152 152 147 144 146 146 143 138 132 124 123 130 135 139 147 156 153 145 135 123 121 124 113 78 33 356 357 350 310 290 354 31 51 67 76 83 82 73 72 78 76 64 46 28 15 5 358 353 349 344 343 350 90 54 31 31 37 32 23 13 0 350 345 343
228 223 217 215 221 223 210 197 190 186 184 182 179 177 173 165 157 149 141 136 138 143 147 149 150 152 154 152 148 144 140 139 140 140 144 153 161 164 173 185 177 156 141 118 95 55 24 30 38 143 150 77 53 61 72 79 86 89 73 57 51 45 35 24 13 4 358 353 351 351 350 345 337 330 73 67 70 53 19 1 351 344 340 335 332
225 214 204 198 195 191 186 182 181 182 185 185 183 178 169 160 157 153 146 139 136 138 142 145 145 147 154 159 161 161 160 159 150 141 141 146 149 153 168 182 172 152 131 114 106 97 80 76 83 110 94 81 77 82 91 98 98 89 60 38 27 18 11 6 0 355 353 350 345 342 339 336 331 315 186 128 108 60 347 337 334 332 331 327 322
218 204 192 185 182 187 205 225 221 211 207 200 186 175 165 158 156 153 150 148 142 137 139 142 142 144 154 162 163 160 156 147 135 128 131 138 145 157 173 183 181 168 146 114 106 108 107 114 129 150 121 77 73 81 91 94 83 55 27 15 8 4 2 359 354 350 349 348 341 334 326 323 323 306 230 168 155 300 313 318 319 321 322 321 319
218 206 198 194 192 201 220 236 233 224 215 198 180 170 165 161 160 158 156 155 152 146 145 146 141 141 149 154 152 147 143 137 130 128 134 141 149 162 173 180 183 187 194 182 125 119 117 119 130 146 166 179 98 87 82 63 33 13 1 358 359 357 352 348 344 345 346 344 336 326 316 312 311 279 222 202 223 279 299 308 313 317 321 322 323
216 211 207 205 206 212 221 224 220 210 199 185 175 170 168 164 161 159 158 156 154 151 150 151 147 145 147 149 146 142 140 139 135 131 131 134 141 154 168 175 180 189 202 203 161 120 109 116 161 183 172 151 116 67 14 354 352 352 352 351 347 341 336 334 338 344 348 345 338 326 310 302 294 260 234 230 247 274 292 303 310 316 322 324 326
203 196 189 187 189 193 196 195 191 186 181 175 170 167 164 158 152 150 151 152 151 150 151 153 154 155 152 148 144 143 142 141 139 132 120 115 119 133 150 164 179 195 207 213 202 138 110 128 161 184 195 200 353 344 331 330 337 345 349 347 340 335 337 346 358 5 6 2 355 343 322 298 285 269 253 246 253 273 293 309 318 325 328 328 327